Location: Beverley
(50.2667°N, 107.9667°W)
Time: 22:33:33
(UTC+00:00)

Envisat - Pass Details

Date: 22 January 2022
Orbit: 764 x 765 km, 98.2° (Epoch: 21 May)

Event Time Altitude Azimuth Distance (km) Brightness Sun altitude
Rises 11:45:20 0° 18° (NNE) 3,243 6.5 -30.5°
Reaches altitude 10° 11:47:44 10° 24° (NNE) 2,312 5.8 -30.2°
Maximum altitude 11:52:40 48° 99° (E) 994 3.8 -29.4°
Drops below altitude 10° 11:57:33 10° 174° (S) 2,296 5.5 -28.6°
Sets 11:59:56 0° 180° (S) 3,218 6.2 -28.2°
